FW3222 Weather Reports


Display with metric or nautical units.
time (UTC)temp
F
wind
direction
speed
MPH
gust
MPH
rain 1hr
in
rain 24hr
in
rain mn
in
humidity
%
barometer
mb
20260831030705 75 22 0.0 0.0 0.00 0.00 0.00 62 1020.2
20260831030353 75 22 0.0 1.0 0.00 0.00 0.00 62 1020.2
20260831030051 75 355 0.0 1.0 0.00 0.00 0.00 62 1020.2
20260831025752 75 43 0.0 1.0 0.00 0.00 0.00 63 1020.2
20260831025443 75 88 0.0 1.0 0.00 0.00 0.00 63 1020.2
20260831025144 75 85 0.0 1.0 0.00 0.00 0.00 63 1020.2
20260831024840 75 74 0.0 1.0 0.00 0.00 0.00 63 1020.2
20260831024527 75 304 0.0 0.0 0.00 0.00 0.00 63 1020.3
20260831023344 75 304 0.0 0.0 0.00 0.00 0.00 62 1020.3
20260831023047 75 304 0.0 0.0 0.00 0.00 0.00 62 1020.3
20260831022737 76 304 0.0 0.0 0.00 0.00 0.00 62 1020.3
20260831022433 76 304 0.0 0.0 0.00 0.00 0.00 62 1020.2
20260831022134 76 304 0.0 0.0 0.00 0.00 0.00 62 1020.3
20260831021837 76 304 0.0 0.0 0.00 0.00 0.00 62 1020.3
20260831021115 76 304 0.0 0.0 0.00 0.00 0.00 62 1020.3
20260831020354 76 304 0.0 2.0 0.00 0.00 0.00 62 1020.3
20260831020054 76 291 0.0 2.0 0.00 0.00 0.00 62 1020.3
20260831015749 76 291 0.0 2.0 0.00 0.00 0.00 62 1020.3
20260831015449 76 291 0.0 2.0 0.00 0.00 0.00 62 1020.3
20260831014724 76 9 0.0 2.0 0.00 0.00 0.00 62 1020.3
20260831014413 76 257 0.0 0.0 0.00 0.00 0.00 61 1020.3
20260831013639 76 257 0.0 0.0 0.00 0.00 0.00 61 1020.3
20260831013336 76 257 0.0 1.0 0.00 0.00 0.00 61 1020.2
20260831013026 76 245 0.0 0.0 0.00 0.00 0.00 61 1020.1
20260831012726 76 158 0.0 0.0 0.00 0.00 0.00 61 1020.1
20260831012418 77 158 0.0 0.0 0.00 0.00 0.00 61 1020.0
20260831012116 77 158 0.0 0.0 0.00 0.00 0.00 61 1020.0
20260831011818 77 158 0.0 0.0 0.00 0.00 0.00 60 1020.0
20260831011102 77 158 0.0 0.0 0.00 0.00 0.00 60 1019.8
20260831010748 77 158 0.0 0.0 0.00 0.00 0.00 60 1019.8
20260831010436 77 158 0.0 0.0 0.00 0.00 0.00 60 1019.8
20260831010127 77 158 0.0 0.0 0.00 0.00 0.00 59 1019.8
20260831005402 77 158 0.0 0.0 0.00 0.00 0.00 59 1019.7
20260831004635 77 158 0.0 0.0 0.00 0.00 0.00 59 1019.6
20260831003902 77 158 0.0 0.0 0.00 0.00 0.00 58 1019.5
20260831003140 78 158 0.0 0.0 0.00 0.00 0.00 58 1019.1
20260831002838 78 158 0.0 0.0 0.00 0.00 0.00 57 1019.1
20260831002107 78 158 0.0 0.0 0.00 0.00 0.00 57 1019.0
20260831001344 78 158 0.0 0.0 0.00 0.00 0.00 57 1018.9
20260831001046 78 158 0.0 1.0 0.00 0.00 0.00 57 1018.8
20260831000740 78 200 0.0 1.0 0.00 0.00 0.00 56 1018.7
20260831000440 78 199 0.0 1.0 0.00 0.00 0.00 57 1018.7
20260831000142 78 147 0.0 0.0 0.00 0.00 0.00 57 1018.7
20260830235845 79 136 0.0 0.0 0.00 0.00 0.00 57 1018.7
20260830235534 79 136 0.0 0.0 0.00 0.00 0.00 57 1018.7
20260830235233 79 136 0.0 0.0 0.00 0.00 0.00 57 1018.6
20260830234933 79 77 0.0 0.0 0.00 0.00 0.00 56 1018.6
20260830234628 79 77 0.0 0.0 0.00 0.00 0.00 56 1018.7
20260830234318 79 77 0.0 0.0 0.00 0.00 0.00 56 1018.5
20260830234010 79 77 0.0 0.0 0.00 0.00 0.00 56 1018.7
20260830233714 79 77 0.0 0.0 0.00 0.00 0.00 56 1018.7
20260830233417 79 77 0.0 0.0 0.00 0.00 0.00 56 1018.7
20260830233120 79 77 0.0 0.0 0.00 0.00 0.00 55 1018.7
20260830232809 80 77 0.0 0.0 0.00 0.00 0.00 55 1018.8
20260830232512 80 77 0.0 0.0 0.00 0.00 0.00 55 1018.8
20260830232212 80 77 0.0 0.0 0.00 0.00 0.00 55 1018.8
20260830231910 80 77 0.0 0.0 0.00 0.00 0.00 55 1018.8
20260830231601 80 77 0.0 0.0 0.00 0.00 0.00 55 1018.8
20260830231301 80 77 0.0 0.0 0.00 0.00 0.00 54 1018.8
20260830230948 80 77 0.0 0.0 0.00 0.00 0.00 54 1018.8
20260830230650 80 77 0.0 0.0 0.00 0.00 0.00 54 1018.8
20260830230352 80 77 0.0 0.0 0.00 0.00 0.00 53 1018.8
20260830230051 80 77 0.0 0.0 0.00 0.00 0.00 53 1018.8
20260830225753 81 77 0.0 0.0 0.00 0.00 0.00 53 1018.8
20260830225443 81 77 0.0 0.0 0.00 0.00 0.00 53 1018.8
20260830224727 81 77 0.0 0.0 0.00 0.00 0.00 52 1018.8
20260830224421 81 77 0.0 0.0 0.00 0.00 0.00 51 1018.9
20260830224115 81 77 0.0 0.0 0.00 0.00 0.00 51 1018.8
20260830223804 82 77 0.0 0.0 0.00 0.00 0.00 51 1018.7
20260830223500 82 77 0.0 1.0 0.00 0.00 0.00 50 1018.8
20260830223155 82 13 0.0 3.0 0.00 0.00 0.00 51 1018.8
20260830222858 82 13 0.0 3.0 0.00 0.00 0.00 50 1018.9
20260830221259 83 62 1.0 5.0 0.00 0.00 0.00 49 1018.8
20260830221001 83 80 1.0 5.0 0.00 0.00 0.00 49 1018.8
20260830220649 83 11 1.0 5.0 0.00 0.00 0.00 48 1018.9
20260830220339 83 91 1.0 5.0 0.00 0.00 0.00 48 1018.8
20260830220043 84 72 1.0 5.0 0.00 0.00 0.00 48 1018.6
20260830215746 84 316 1.0 5.0 0.00 0.00 0.00 47 1018.7
20260830215432 84 45 0.0 5.0 0.00 0.00 0.00 48 1018.5
20260830215134 84 338 0.0 2.0 0.00 0.00 0.00 49 1018.6
20260830214357 84 5 0.0 2.0 0.00 0.00 0.00 48 1018.5
20260830213624 85 39 0.0 5.0 0.00 0.00 0.00 47 1018.5
20260830213314 85 52 0.0 5.0 0.00 0.00 0.00 48 1018.5
20260830213013 85 59 1.0 5.0 0.00 0.00 0.00 48 1018.6
20260830212247 85 329 2.0 5.0 0.00 0.00 0.00 46 1018.5
20260830211942 85 281 1.0 5.0 0.00 0.00 0.00 47 1018.4
20260830211212 85 300 0.0 3.0 0.00 0.00 0.00 46 1018.4
20260830210015 85 25 1.0 3.0 0.00 0.00 0.00 46 1018.4
20260830205710 86 283 1.0 5.0 0.00 0.00 0.00 47 1018.5
20260830204953 86 300 1.0 5.0 0.00 0.00 0.00 47 1018.5
20260830204645 86 273 1.0 5.0 0.00 0.00 0.00 46 1018.4
20260830204343 86 298 1.0 5.0 0.00 0.00 0.00 47 1018.5
20260830204043 86 288 1.0 5.0 0.00 0.00 0.00 45 1018.5
20260830203317 86 331 1.0 7.0 0.00 0.00 0.00 47 1018.6
20260830203016 87 288 1.0 7.0 0.00 0.00 0.00 47 1018.6
20260830202713 87 264 2.0 7.0 0.00 0.00 0.00 48 1018.5
20260830202401 86 210 2.0 7.0 0.00 0.00 0.00 50 1018.6
20260830202102 86 281 1.0 7.0 0.00 0.00 0.00 48 1018.5
20260830201322 86 139 1.0 6.0 0.00 0.00 0.00 49 1018.6
20260830201023 86 338 2.0 6.0 0.00 0.00 0.00 49 1018.6
20260830200725 86 297 2.0 6.0 0.00 0.00 0.00 49 1018.5
20260830200415 86 283 2.0 6.0 0.00 0.00 0.00 48 1018.5
20260830200104 86 278 1.0 5.0 0.00 0.00 0.00 48 1018.5
20260830195804 86 286 1.0 5.0 0.00 0.00 0.00 48 1018.6
20260830195459 86 292 1.0 5.0 0.00 0.00 0.00 50 1018.5
20260830194727 85 286 0.0 5.0 0.00 0.00 0.00 50 1018.7
20260830193956 86 236 1.0 6.0 0.00 0.00 0.00 51 1018.8
20260830193649 86 188 1.0 6.0 0.00 0.00 0.00 50 1018.9
20260830192924 86 270 2.0 6.0 0.00 0.00 0.00 51 1019.0
20260830192623 86 259 2.0 6.0 0.00 0.00 0.00 50 1018.9
20260830192322 86 205 1.0 6.0 0.00 0.00 0.00 49 1018.9
20260830192014 86 200 1.0 5.0 0.00 0.00 0.00 52 1018.9
20260830190006 87 306 1.0 6.0 0.00 0.00 0.00 48 1019.5
20260830185242 87 277 1.0 10.0 0.00 0.00 0.00 48 1019.7
20260830184937 87 176 2.0 10.0 0.00 0.00 0.00 47 1019.8
20260830184634 87 130 2.0 10.0 0.00 0.00 0.00 50 1019.8
20260830184329 87 242 3.0 10.0 0.00 0.00 0.00 48 1019.9
20260830184020 87 5 4.0 10.0 0.00 0.00 0.00 47 1019.9
20260830183714 87 196 3.0 10.0 0.00 0.00 0.00 49 1019.9
20260830183405 87 297 3.0 10.0 0.00 0.00 0.00 48 1020.0
20260830183108 87 265 2.0 7.0 0.00 0.00 0.00 48 1019.9
20260830182804 87 165 2.0 7.0 0.00 0.00 0.00 48 1020.0
20260830182503 87 183 2.0 6.0 0.00 0.00 0.00 49 1020.0
20260830182202 87 265 2.0 6.0 0.00 0.00 0.00 47 1020.0
20260830181858 87 252 1.0 6.0 0.00 0.00 0.00 49 1020.1
20260830181547 86 277 1.0 3.0 0.00 0.00 0.00 51 1020.0
20260830181242 86 182 3.0 3.0 0.00 0.00 0.00 50 1020.1
20260830170949 84 204 2.0 9.0 0.00 0.00 0.00 53 1020.9
20260830170649 84 204 2.0 9.0 0.00 0.00 0.00 53 1020.9
20260830170340 84 204 2.0 9.0 0.00 0.00 0.00 53 1020.9
20260830165619 83 216 1.0 7.0 0.00 0.00 0.00 53 1021.0
20260830165321 83 251 2.0 7.0 0.00 0.00 0.00 54 1021.1
20260830165017 83 216 2.0 7.0 0.00 0.00 0.00 54 1021.0
20260830164711 83 349 2.0 6.0 0.00 0.00 0.00 55 1020.9
20260830164412 83 167 2.0 6.0 0.00 0.00 0.00 55 1021.0
20260830163637 82 263 1.0 6.0 0.00 0.00 0.00 55 1021.1
20260830163334 82 286 1.0 6.0 0.00 0.00 0.00 55 1021.1
20260830163030 81 264 2.0 6.0 0.00 0.00 0.00 55 1021.2
20260830162722 81 178 2.0 9.0 0.00 0.00 0.00 56 1021.2
20260830162425 81 233 2.0 9.0 0.00 0.00 0.00 55 1021.1
20260830162116 81 200 2.0 9.0 0.00 0.00 0.00 54 1021.2
20260830161805 81 238 3.0 9.0 0.00 0.00 0.00 55 1021.2
20260830161506 81 253 2.0 9.0 0.00 0.00 0.00 54 1021.2
20260830161208 81 157 2.0 9.0 0.00 0.00 0.00 54 1021.3
20260830160856 81 182 2.0 7.0 0.00 0.00 0.00 54 1021.3
20260830160547 81 336 2.0 7.0 0.00 0.00 0.00 54 1021.3
20260830160236 80 179 2.0 7.0 0.00 0.00 0.00 54 1021.3
20260830155932 80 175 1.0 7.0 0.00 0.00 0.00 55 1021.3
20260830155625 80 140 1.0 7.0 0.00 0.00 0.00 54 1021.3
20260830155318 80 223 1.0 6.0 0.00 0.00 0.00 55 1021.5
20260830155018 79 263 1.0 6.0 0.00 0.00 0.00 59 1021.6
20260830154721 79 324 1.0 6.0 0.00 0.00 0.00 55 1021.5
20260830154417 78 178 1.0 6.0 0.00 0.00 0.00 56 1021.6
20260830154117 78 148 2.0 6.0 0.00 0.00 0.00 56 1021.7
20260830153352 77 150 2.0 7.0 0.00 0.00 0.00 58 1021.9
20260830153049 76 202 2.0 7.0 0.00 0.00 0.00 58 1021.9
20260830152744 76 302 2.0 7.0 0.00 0.00 0.00 58 1021.9
20260830152011 75 263 2.0 8.0 0.00 0.00 0.00 58 1021.9
20260830151659 75 329 2.0 8.0 0.00 0.00 0.00 59 1021.9
20260830151352 75 348 2.0 8.0 0.00 0.00 0.00 59 1021.9
20260830151052 75 323 1.0 8.0 0.00 0.00 0.00 59 1021.9
20260830150752 75 288 1.0 8.0 0.00 0.00 0.00 58 1021.9
20260830150440 74 237 1.0 6.0 0.00 0.00 0.00 58 1021.9
20260830150129 74 342 2.0 6.0 0.00 0.00 0.00 59 1021.8
20260830145826 74 186 1.0 6.0 0.00 0.00 0.00 58 1021.8
20260830145519 74 283 2.0 8.0 0.00 0.00 0.00 58 1021.8
20260830145205 74 250 2.0 8.0 0.00 0.00 0.00 57 1021.9
20260830144856 74 321 2.0 8.0 0.00 0.00 0.00 58 1021.9
20260830144548 74 323 2.0 8.0 0.00 0.00 0.00 58 1021.8
20260830144246 74 246 2.0 8.0 0.00 0.00 0.00 58 1021.8
20260830143533 73 347 1.0 6.0 0.00 0.00 0.00 58 1021.8
20260830142821 73 255 1.0 6.0 0.00 0.00 0.00 59 1021.8
20260830142516 73 173 2.0 6.0 0.00 0.00 0.00 59 1021.8
20260830142209 73 187 1.0 6.0 0.00 0.00 0.00 59 1021.9
20260830141907 73 298 1.0 6.0 0.00 0.00 0.00 59 1022.1
20260830141554 72 325 1.0 5.0 0.00 0.00 0.00 59 1022.1
20260830141253 72 284 1.0 7.0 0.00 0.00 0.00 59 1022.1
20260830140949 72 289 1.0 7.0 0.00 0.00 0.00 59 1022.2
20260830140636 72 269 1.0 7.0 0.00 0.00 0.00 59 1022.2
20260830140328 72 49 1.0 7.0 0.00 0.00 0.00 59 1022.2
20260830140032 71 9 2.0 7.0 0.00 0.00 0.00 59 1022.1
20260830135321 71 16 1.0 7.0 0.00 0.00 0.00 60 1022.1
20260830135011 71 297 1.0 7.0 0.00 0.00 0.00 59 1022.1
20260830134239 70 177 1.0 6.0 0.00 0.00 0.00 60 1022.1
20260830133940 70 323 1.0 6.0 0.00 0.00 0.00 59 1022.1
20260830133641 69 283 0.0 3.0 0.00 0.00 0.00 60 1022.1
20260830133338 69 323 0.0 3.0 0.00 0.00 0.00 60 1022.1
20260830133032 69 42 0.0 2.0 0.00 0.00 0.00 60 1022.1
20260830132307 68 294 0.0 2.0 0.00 0.00 0.00 60 1022.3
20260830131955 68 251 0.0 1.0 0.00 0.00 0.00 60 1022.4
20260830131643 68 186 0.0 0.0 0.00 0.00 0.00 61 1022.3
20260830130922 67 209 0.0 1.0 0.00 0.00 0.00 61 1022.4
20260830130620 67 154 0.0 0.0 0.00 0.00 0.00 61 1022.5
20260830130318 67 190 0.0 2.0 0.00 0.00 0.00 61 1022.5
20260830130010 67 234 0.0 0.0 0.00 0.00 0.00 61 1022.5
20260830125244 67 263 0.0 0.0 0.00 0.00 0.00 62 1022.7
20260830124045 66 308 0.0 0.0 0.00 0.00 0.00 62 1022.7
20260830122453 65 344 0.0 0.0 0.00 0.00 0.00 64 1022.6
20260830122147 65 344 0.0 0.0 0.00 0.00 0.00 64 1022.5
20260830121418 65 344 0.0 0.0 0.00 0.00 0.00 64 1022.5
20260830120237 64 330 0.0 1.0 0.00 0.00 0.00 65 1022.6
20260830115923 64 299 0.0 1.0 0.00 0.00 0.00 65 1022.6
20260830115625 63 297 0.0 0.0 0.00 0.00 0.00 65 1022.7
20260830115317 63 297 0.0 0.0 0.00 0.00 0.00 65 1022.6
20260830115007 63 297 0.0 0.0 0.00 0.00 0.00 64 1022.6
20260830114657 63 297 0.0 0.0 0.00 0.00 0.00 64 1022.6
20260830114400 63 297 0.0 0.0 0.00 0.00 0.00 64 1022.6
20260830114103 63 297 0.0 0.0 0.00 0.00 0.00 64 1022.6
20260830113803 63 297 0.0 0.0 0.00 0.00 0.00 64 1022.7
20260830113450 63 296 0.0 0.0 0.00 0.00 0.00 64 1022.7
20260830113152 63 297 0.0 0.0 0.00 0.00 0.00 64 1022.6
20260830112841 63 296 0.0 0.0 0.00 0.00 0.00 64 1022.7
20260830112531 63 297 0.0 0.0 0.00 0.00 0.00 64 1022.8
20260830112230 63 296 0.0 0.0 0.00 0.00 0.00 64 1022.8
20260830111928 63 297 0.0 0.0 0.00 0.00 0.00 64 1022.7
20260830111631 63 297 0.0 0.0 0.00 0.00 0.00 64 1022.8
20260830111329 63 296 0.0 0.0 0.00 0.00 0.00 64 1022.8
20260830111020 63 297 0.0 1.0 0.00 0.00 0.00 64 1022.7
20260830110719 63 297 0.0 0.0 0.00 0.00 0.00 64 1022.7
20260830110415 63 297 0.0 0.0 0.00 0.00 0.00 64 1022.6
20260830110112 63 297 0.0 0.0 0.00 0.00 0.00 64 1022.6
20260830105758 63 297 0.0 0.0 0.00 0.00 0.00 64 1022.6
20260830105458 63 297 0.0 0.0 0.00 0.00 0.00 64 1022.5
20260830105202 63 297 0.0 0.0 0.00 0.00 0.00 64 1022.6
20260830104013 63 302 0.0 1.0 0.00 0.00 0.00 64 1022.6
20260830103717 63 298 0.0 0.0 0.00 0.00 0.00 64 1022.6
20260830103419 63 298 0.0 0.0 0.00 0.00 0.00 64 1022.7
20260830103112 63 298 0.0 0.0 0.00 0.00 0.00 64 1022.6
20260830102802 63 298 0.0 0.0 0.00 0.00 0.00 64 1022.6
20260830102028 63 298 0.0 1.0 0.00 0.00 0.00 64 1022.6
20260830101719 63 313 0.0 1.0 0.00 0.00 0.00 64 1022.6
20260830101417 63 313 0.0 1.0 0.00 0.00 0.00 64 1022.6
20260830101119 63 295 0.0 1.0 0.00 0.00 0.00 64 1022.6
20260830100823 63 295 0.0 2.0 0.00 0.00 0.00 65 1022.3
20260830100525 63 288 0.0 2.0 0.00 0.00 0.00 65 1022.4
20260830100224 63 298 0.0 0.0 0.00 0.00 0.00 65 1022.4
20260830095923 63 323 0.0 0.0 0.00 0.00 0.00 65 1022.4
20260830095618 63 299 0.0 1.0 0.00 0.00 0.00 65 1022.4
20260830095320 62 291 0.0 1.0 0.00 0.00 0.00 65 1022.3
20260830095012 62 40 0.0 0.0 0.00 0.00 0.00 65 1022.3
20260830094716 62 40 0.0 0.0 0.00 0.00 0.00 65 1022.3
20260830094408 62 40 0.0 0.0 0.00 0.00 0.00 65 1022.4
20260830094110 62 40 0.0 0.0 0.00 0.00 0.00 65 1022.3
20260830093806 62 40 0.0 0.0 0.00 0.00 0.00 65 1022.5
20260830093455 62 40 0.0 0.0 0.00 0.00 0.00 65 1022.4
20260830093150 62 41 0.0 0.0 0.00 0.00 0.00 65 1022.5
20260830092837 62 64 0.0 0.0 0.00 0.00 0.00 65 1022.5
20260830092115 62 86 0.0 0.0 0.00 0.00 0.00 65 1022.3
20260830091806 62 94 0.0 0.0 0.00 0.00 0.00 65 1022.3
20260830091457 62 94 0.0 0.0 0.00 0.00 0.00 65 1022.3
20260830091149 62 94 0.0 0.0 0.00 0.00 0.00 65 1022.3
20260830090838 62 94 0.0 0.0 0.00 0.00 0.00 65 1022.3
20260830085642 61 71 0.0 2.0 0.00 0.00 0.00 65 1022.4
20260830085336 61 277 0.0 0.0 0.00 0.00 0.00 65 1022.3
20260830084202 61 277 0.0 0.0 0.00 0.00 0.00 65 1022.5
20260830083856 61 277 0.0 0.0 0.00 0.00 0.00 65 1022.5
20260830083544 61 277 0.0 0.0 0.00 0.00 0.00 65 1022.6
20260830083247 61 277 0.0 0.0 0.00 0.00 0.00 66 1022.7
20260830082949 61 277 0.0 0.0 0.00 0.00 0.00 66 1022.7
20260830082641 61 277 0.0 0.0 0.00 0.00 0.00 66 1022.8
20260830082328 60 277 0.0 0.0 0.00 0.00 0.00 66 1022.9
20260830081600 60 277 0.0 0.0 0.00 0.00 0.00 65 1023.0
20260830081255 60 277 0.0 0.0 0.00 0.00 0.00 65 1023.0
20260830080951 60 277 0.0 0.0 0.00 0.00 0.00 65 1023.0
20260830080638 60 277 0.0 0.0 0.00 0.00 0.00 65 1023.0
20260830080326 60 277 0.0 0.0 0.00 0.00 0.00 65 1023.1
20260830080022 60 277 0.0 0.0 0.00 0.00 0.00 65 1023.1
20260830075710 60 277 0.0 0.0 0.00 0.00 0.00 65 1023.2
20260830075412 60 277 0.0 0.0 0.00 0.00 0.00 65 1023.0
20260830074650 60 277 0.0 0.0 0.00 0.00 0.00 65 1022.9
20260830074353 60 277 0.0 0.0 0.00 0.00 0.00 65 1022.8
20260830074042 60 277 0.0 0.0 0.00 0.00 0.00 65 1022.8
20260830073739 60 277 0.0 0.0 0.00 0.00 0.00 65 1022.9
20260830073437 60 277 0.0 0.0 0.00 0.00 0.00 65 1022.9
20260830072715 60 277 0.0 0.0 0.00 0.00 0.00 65 1022.9
20260830072401 60 277 0.0 0.0 0.00 0.00 0.00 65 1023.0
20260830072057 60 277 0.0 0.0 0.00 0.00 0.00 65 1023.0
20260830071744 60 277 0.0 0.0 0.00 0.00 0.00 65 1023.0
20260830071439 60 277 0.0 0.0 0.00 0.00 0.00 65 1023.0
20260830071127 60 277 0.0 0.0 0.00 0.00 0.00 65 1022.9
20260830070821 60 277 0.0 0.0 0.00 0.00 0.00 65 1023.0
20260830070511 60 277 0.0 0.0 0.00 0.00 0.00 65 1022.9
20260830070212 60 277 0.0 0.0 0.00 0.00 0.00 65 1023.0
20260830065501 60 277 0.0 0.0 0.00 0.00 0.00 65 1023.0
20260830065204 60 277 0.0 0.0 0.00 0.00 0.00 65 1023.1
20260830064852 60 277 0.0 0.0 0.00 0.00 0.00 65 1023.1
20260830064543 60 277 0.0 0.0 0.00 0.00 0.00 65 1023.1
20260830064245 60 277 0.0 0.0 0.00 0.00 0.00 65 1023.1
20260830063936 60 277 0.0 0.0 0.00 0.00 0.00 65 1023.1
20260830063210 60 277 0.0 0.0 0.00 0.00 0.00 65 1023.2
20260830062908 60 277 0.0 0.0 0.00 0.00 0.00 64 1023.3
20260830062604 60 277 0.0 0.0 0.00 0.00 0.00 64 1023.3
20260830062256 60 277 0.0 0.0 0.00 0.00 0.00 64 1023.4
20260830061958 60 277 0.0 0.0 0.00 0.00 0.00 64 1023.3
20260830061222 60 277 0.0 0.0 0.00 0.00 0.00 64 1023.2
20260830060918 60 277 0.0 0.0 0.00 0.00 0.00 64 1023.2
20260830060609 60 277 0.0 0.0 0.00 0.00 0.00 64 1023.2
20260830060257 60 277 0.0 0.0 0.00 0.00 0.00 64 1023.3
20260830055957 60 277 0.0 0.0 0.00 0.00 0.00 64 1023.3
20260830055643 60 277 0.0 0.0 0.00 0.00 0.00 64 1023.3
20260830055338 60 277 0.0 0.0 0.00 0.00 0.00 64 1023.4
20260830055035 60 277 0.0 0.0 0.00 0.00 0.00 64 1023.4
20260830054724 60 277 0.0 0.0 0.00 0.00 0.00 64 1023.4
20260830054411 60 277 0.0 0.0 0.00 0.00 0.00 64 1023.4
20260830054113 60 277 0.0 0.0 0.00 0.00 0.00 64 1023.5
20260830053814 60 277 0.0 0.0 0.00 0.00 0.00 64 1023.5
20260830053517 60 277 0.0 0.0 0.00 0.00 0.00 64 1023.5
20260830053203 60 277 0.0 0.0 0.00 0.00 0.00 64 1023.6
20260830052855 60 277 0.0 0.0 0.00 0.00 0.00 64 1023.5
20260830052545 60 277 0.0 0.0 0.00 0.00 0.00 64 1023.4
20260830050949 61 277 0.0 0.0 0.00 0.00 0.00 63 1023.5
20260830050226 61 277 0.0 0.0 0.00 0.00 0.00 63 1023.6
20260830045458 61 277 0.0 0.0 0.00 0.00 0.00 63 1023.5
20260830045154 61 277 0.0 0.0 0.00 0.00 0.00 63 1023.4
20260830044851 61 277 0.0 0.0 0.00 0.00 0.00 63 1023.4
20260830044542 61 277 0.0 0.0 0.00 0.00 0.00 63 1023.4
20260830044235 61 277 0.0 0.0 0.00 0.00 0.00 64 1023.3
20260830043931 61 277 0.0 0.0 0.00 0.00 0.00 64 1023.4
20260830043617 61 277 0.0 0.0 0.00 0.00 0.00 64 1023.4
20260830043314 61 277 0.0 0.0 0.00 0.00 0.00 64 1023.4
20260830043004 61 277 0.0 0.0 0.00 0.00 0.00 64 1023.4
20260830042243 61 277 0.0 0.0 0.00 0.00 0.00 64 1023.5
20260830041057 61 277 0.0 0.0 0.00 0.00 0.00 63 1023.4
20260830040754 61 277 0.0 0.0 0.00 0.00 0.00 63 1023.5
20260830040455 61 277 0.0 0.0 0.00 0.00 0.00 63 1023.6
20260830040149 61 277 0.0 0.0 0.00 0.00 0.00 63 1023.5
20260830035842 61 277 0.0 0.0 0.00 0.00 0.00 63 1023.6
20260830034657 62 277 0.0 0.0 0.00 0.00 0.00 63 1023.5
20260830033522 62 277 0.0 0.0 0.00 0.00 0.00 63 1023.4
20260830033213 62 277 0.0 0.0 0.00 0.00 0.00 63 1023.3
20260830032858 62 277 0.0 0.0 0.00 0.00 0.00 63 1023.3
20260830032552 62 277 0.0 0.0 0.00 0.00 0.00 63 1023.3
20260830031834 62 277 0.0 0.0 0.00 0.00 0.00 62 1023.2
20260830031535 62 277 0.0 0.0 0.00 0.00 0.00 62 1023.2
20260830031232 62 277 0.0 0.0 0.00 0.00 0.00 62 1023.2
20260830030924 63 277 0.0 0.0 0.00 0.00 0.00 62 1023.1